This demonstration page uses our WeatherBlox Daily Observations layout. Learn more.

Left ArrowRight Arrow

39.01783, -85.05884

Hourly Observations for February 9, 2019

Temp ( °F °C ) Dew Point ( °F °C ) Humidity (%) Winds ( mph kmh ) Pressure ( in mb ) Visibility ( mi km ) Precip ( " mm )
12:52 am 00:52 Partly Cloudy 18 -7.8 8 -13.3 65 65 NW 9 15 30.76 1042 10 16 0.00 0.00
1:52 am 01:52 Partly Cloudy 17 -8.3 8 -13.3 68 68 NW 9 15 30.77 1042 10 16 0.00 0.00
2:52 am 02:52 Partly Cloudy 16 -8.9 8 -13.3 71 71 NNW 6 9 30.79 1043 10 16 0.00 0.00
3:52 am 03:52 Partly Cloudy 16 -8.9 8 -13.3 71 71 N 9 15 30.80 1043 10 16 0.00 0.00
4:52 am 04:52 Mostly Clear 15 -9.4 7 -13.9 70 70 N 8 13 30.81 1043 10 16 0.00 0.00
5:52 am 05:52 Mostly Clear 15 -9.4 7 -13.9 70 70 N 8 13 30.82 1044 10 16 0.00 0.00
6:52 am 06:52 Mostly Clear 14 -10 7 -13.9 73 73 N 9 15 30.84 1044 10 16 0.00 0.00
7:52 am 07:52 Mostly Sunny 14 -10 6 -14.4 71 71 NNE 9 15 30.86 1045 10 16 0.00 0.00
8:52 am 08:52 Mostly Sunny 16 -8.9 8 -13.3 71 71 ENE 7 11 30.87 1045 10 16 0.00 0.00
9:52 am 09:52 Mostly Sunny 18 -7.8 7 -13.9 62 62 ENE 9 15 30.89 1046 10 16 0.00 0.00
10:52 am 10:52 Sunny 21 -6.1 7 -13.9 54 54 E 8 13 30.88 1046 10 16 0.00 0.00
11:52 am 11:52 Sunny 23 -5 8 -13.3 53 53 VRB 7 11 30.88 1046 10 16 0.00 0.00
12:52 pm 12:52 Sunny 24 -4.4 9 -12.8 52 52 VRB 3 6 30.84 1045 10 16 0.00 0.00
1:52 pm 13:52 Mostly Sunny 26 -3.3 8 -13.3 46 46 E 3 6 30.80 1043 10 16 0.00 0.00
2:52 pm 14:52 Mostly Sunny 28 -2.2 9 -12.8 44 44 NE 8 13 30.77 1042 10 16 0.00 0.00
3:52 pm 15:52 Partly Cloudy 29 -1.7 10 -12.2 45 45 ENE 8 13 30.73 1041 10 16 0.00 0.00
4:52 pm 16:52 Partly Cloudy 30 -1.1 10 -12.2 43 43 NE 8 13 30.73 1041 10 16 0.00 0.00
5:52 pm 17:52 Partly Cloudy 28 -2.2 10 -12.2 47 47 E 8 13 30.72 1040 10 16 0.00 0.00
6:52 pm 18:52 Mostly Cloudy 28 -2.2 12 -11.1 51 51 NE 9 15 30.73 1041 10 16 0.00 0.00
7:52 pm 19:52 Mostly Cloudy 26 -3.3 14 -10 60 60 ENE 9 15 30.71 1040 10 16 0.00 0.00
8:52 pm 20:52 Mostly Cloudy 25 -3.9 14 -10 63 63 E 10 17 30.70 1040 10 16 0.00 0.00
9:52 pm 21:52 Mostly Cloudy 25 -3.9 15 -9.4 66 66 ENE 8 13 30.68 1039 10 16 0.00 0.00
10:52 pm 22:52 Mostly Cloudy 24 -4.4 15 -9.4 68 68 ENE 10 17 30.68 1039 10 16 0.00 0.00
11:52 pm 23:52 Mostly Cloudy 23 -5 15 -9.4 72 72 ENE 9 15 30.65 1038 10 16 0.00 0.00

Powered by AerisWeather